Location: Niverville
(49.6028°N, 97.0419°W)
Time: 10:27:26
(UTC-05:00)

Amateur Radio Satellites - All Passes

Search period start: 16 September 2014 09:57
Search period end: 17 September 2014 09:57
Location: Niverville, 49.6028°N, 97.0419°W

Satellite Date Start Highest point End Downlink Frequencies (MHz)
Time Altitude Azimuth
Oscar 11 16 Sep 10:06:20 10:08:41 14° 88° (E) 10:11:00 145.825 FM, Beacon 2401.500 USB
JAS-2 16 Sep 10:10:35 10:11:49 11° 312° (NW) 10:13:04 435.800 - 435.900 CW/SSB, 435.910 FM
ISS 16 Sep 10:17:43 10:21:01 56° 206° (SSW) 10:24:17 145.800 FM
UKube-1 16 Sep 10:18:23 10:21:55 23° 94° (E) 10:25:25 145.840 MHz, 145.915 MHz
SO-50 16 Sep 10:26:38 10:27:20 10° 253° (WSW) 10:28:03 436.795 FM
HO-68 16 Sep 10:27:54 10:34:59 58° 102° (ESE) 10:42:02 435.675 MHz FM
MaSat-1 16 Sep 10:30:35 10:35:39 85° 120° (ESE) 10:40:37 437.345 MHz
UOSAT-12 16 Sep 10:41:46 10:46:23 52° 237° (WSW) 10:50:55 437.025 FM, 437.400 FM
RS-15 16 Sep 11:18:43 11:28:46 38° 12° (NNE) 11:39:01 29.354 - 29.394 USB, Beacon 29.352 USB
FUNcube-1 16 Sep 11:20:47 11:25:02 34° 96° (E) 11:29:14 145.950 - 145.970 MHz USB
Oscar 11 16 Sep 11:41:01 11:45:23 72° 287° (WNW) 11:49:43 145.825 FM, Beacon 2401.500 USB
UKube-1 16 Sep 11:54:10 11:58:18 43° 292° (WNW) 12:02:25 145.840 MHz, 145.915 MHz
ISS 16 Sep 11:55:40 11:57:10 13° 224° (SW) 11:58:40 145.800 FM
MaSat-1 16 Sep 12:09:09 12:13:04 22° 319° (NW) 12:16:51 437.345 MHz
HO-68 16 Sep 12:16:02 12:22:26 37° 303° (WNW) 12:28:51 435.675 MHz FM
Oscar 19 16 Sep 12:17:38 12:20:26 15° 53° (NE) 12:23:14 437.125 CW, 437.150 USB
JAS-1B 16 Sep 12:17:45 12:22:21 17° 48° (NE) 12:26:34 435.800 - 435.900 CW/SSB
PCSat 16 Sep 12:40:17 12:43:11 15° 104° (ESE) 12:46:05 145.825 MHz
Oscar 16 16 Sep 12:53:51 12:58:10 27° 61° (ENE) 13:02:31 437.025 USB, Beacon 2401.1428
FUNcube-1 16 Sep 12:57:15 13:01:23 33° 294° (WNW) 13:05:31 145.950 - 145.970 MHz USB
AO-7 16 Sep 13:04:08 13:05:43 11° 22° (NNE) 13:07:17 29.400 - 29.500 MHz
Oscar 11 16 Sep 13:19:36 13:20:47 11° 306° (NW) 13:21:58 145.825 FM, Beacon 2401.500 USB
ITAMSAT 1 16 Sep 13:29:56 13:34:07 26° 60° (ENE) 13:38:20 435.822 SSB
RS-15 16 Sep 13:32:20 13:43:22 69° 43° (NE) 13:54:46 29.354 - 29.394 USB, Beacon 29.352 USB
Uribyol 2 16 Sep 13:34:48 13:39:12 29° 61° (ENE) 13:43:38 436.500 FM
AO-Echo 16 Sep 13:36:02 13:40:03 28° 63° (ENE) 13:44:02 ?
TMSAT-1 16 Sep 13:38:34 13:40:59 13° 51° (NE) 13:43:23 436.925 FM
Sapphire 16 Sep 13:53:11 13:58:22 49° 117° (ESE) 14:03:36 437.095 MHz 1200 baud AX-25 AFSK
Oscar 19 16 Sep 13:53:46 13:58:57 77° 73° (ENE) 14:04:11 437.125 CW, 437.150 USB
AO-27 16 Sep 14:03:03 14:07:57 46° 67° (ENE) 14:12:54 436.795 MHz FM
JAS-1B 16 Sep 14:03:28 14:11:52 62° 68° (ENE) 14:18:54 435.800 - 435.900 CW/SSB
HO-68 16 Sep 14:06:40 14:08:11 11° 326° (NW) 14:09:41 435.675 MHz FM
PCSat 16 Sep 14:20:20 14:25:45 82° 123° (ESE) 14:31:13 145.825 MHz
Oscar 16 16 Sep 14:32:12 14:37:16 52° 260° (W) 14:42:22 437.025 USB, Beacon 2401.1428
Gurwin Techsat 1B 16 Sep 14:35:40 14:40:39 43° 66° (ENE) 14:45:40 435.225 FM
AO-7 16 Sep 14:49:02 14:55:48 29° 48° (NE) 15:02:34 29.400 - 29.500 MHz
ITAMSAT 1 16 Sep 15:08:15 15:13:18 56° 259° (W) 15:18:25 435.822 SSB
Uribyol 2 16 Sep 15:13:30 15:18:29 48° 261° (W) 15:23:31 436.500 FM
AO-Echo 16 Sep 15:14:11 15:18:42 42° 262° (W) 15:23:11 ?
TMSAT-1 16 Sep 15:14:43 15:19:57 67° 71° (ENE) 15:25:14 436.925 FM
Oscar 10/S400 16 Sep 15:21:15 15:27:41 12° 140° (SE) 15:34:14 145.825 - 145.975 CW/USB, Beacon 145.810 USB
Oscar 19 16 Sep 15:35:30 15:38:54 17° 272° (W) 15:42:20 437.125 CW, 437.150 USB
Sapphire 16 Sep 15:36:57 15:41:58 37° 318° (NW) 15:47:02 437.095 MHz 1200 baud AX-25 AFSK
AO-27 16 Sep 15:43:11 15:47:40 29° 266° (W) 15:52:10 436.795 MHz FM
RS-15 16 Sep 15:45:06 15:55:18 45° 248° (WSW) 16:05:54 29.354 - 29.394 USB, Beacon 29.352 USB
JAS-1B 16 Sep 15:55:00 16:02:44 35° 265° (W) 16:09:24 435.800 - 435.900 CW/SSB
PCSat 16 Sep 16:05:15 16:09:48 27° 325° (NW) 16:14:22 145.825 MHz
Gurwin Techsat 1B 16 Sep 16:16:03 16:20:45 32° 265° (W) 16:25:30 435.225 FM
Uosat F 16 Sep 16:20:31 16:25:21 52° 68° (ENE) 16:30:13 435.120 FM
AO-7 16 Sep 16:39:24 16:47:45 88° 250° (WSW) 16:56:06 29.400 - 29.500 MHz
JAS-2 16 Sep 16:56:27 17:00:10 20° 57° (ENE) 17:03:54 435.800 - 435.900 CW/SSB, 435.910 FM
TMSAT-1 16 Sep 16:56:29 17:00:23 21° 270° (W) 17:04:17 436.925 FM
OPAL 16 Sep 17:06:32 17:09:38 16° 90° (E) 17:12:41 ?
MaSat-1 16 Sep 17:07:46 17:09:53 13° 31° (NNE) 17:11:53 437.345 MHz
Sapphire 16 Sep 17:23:56 17:27:00 15° 343° (NNW) 17:30:05 437.095 MHz 1200 baud AX-25 AFSK
PCSat 16 Sep 17:52:41 17:55:10 13° 351° (N) 17:57:39 145.825 MHz
Uosat F 16 Sep 18:00:25 18:04:26 24° 267° (W) 18:08:29 435.120 FM
Hamsat 16 Sep 18:06:35 18:10:52 59° 72° (ENE) 18:15:10 145.90 MHz
Saudisat 1A 16 Sep 18:12:15 18:15:20 19° 113° (ESE) 18:18:25 436.775 MHz
AO-7 16 Sep 18:35:31 18:41:40 23° 271° (W) 18:47:52 29.400 - 29.500 MHz
JAS-2 16 Sep 18:39:35 18:44:51 69° 257° (WSW) 18:50:02 435.800 - 435.900 CW/SSB, 435.910 FM
MaSat-1 16 Sep 18:43:32 18:47:44 60° 55° (NE) 18:51:19 437.345 MHz
OPAL 16 Sep 18:43:57 18:49:12 85° 289° (WNW) 18:54:20 ?
SO-67 16 Sep 18:47:50 18:50:31 22° 66° (ENE) 18:53:13 435.3500 MHz FM
Sapphire 16 Sep 19:10:21 19:12:50 13° 9° (N) 19:15:19 437.095 MHz 1200 baud AX-25 AFSK
HO-68 16 Sep 19:16:37 19:21:13 19° 45° (NE) 19:25:49 435.675 MHz FM
STRAND 1 16 Sep 19:20:00 19:23:48 21° 91° (E) 19:27:36 ?
PCSat 16 Sep 19:37:54 19:41:00 15° 17° (NNE) 19:44:05 145.825 MHz
Hamsat 16 Sep 19:44:17 19:47:12 17° 270° (W) 19:50:08 145.90 MHz
Saudisat 1A 16 Sep 19:50:03 19:54:27 70° 312° (NW) 19:58:53 436.775 MHz
SO-67 16 Sep 20:20:20 20:23:26 30° 264° (W) 20:26:32 435.3500 MHz FM
MaSat-1 16 Sep 20:21:38 20:23:52 15° 258° (WSW) 20:25:55 437.345 MHz
OPAL 16 Sep 20:24:06 20:27:20 17° 309° (NW) 20:30:34 ?
KITSAT 1 16 Sep 20:42:14 20:49:54 49° 115° (ESE) 20:57:36 435.175 FM
Sapphire 16 Sep 20:53:38 20:58:13 27° 35° (NE) 21:02:47 437.095 MHz 1200 baud AX-25 AFSK
STRAND 1 16 Sep 20:58:22 21:03:27 64° 290° (WNW) 21:08:31 ?
HO-68 16 Sep 21:00:40 21:07:43 67° 67° (ENE) 21:14:49 435.675 MHz FM
Oscar 11 16 Sep 21:05:21 21:08:35 21° 61° (ENE) 21:11:49 145.825 FM, Beacon 2401.500 USB
UKube-1 16 Sep 21:17:54 21:21:51 36° 66° (ENE) 21:25:50 145.840 MHz, 145.915 MHz
PCSat 16 Sep 21:20:57 21:26:01 37° 42° (NE) 21:31:03 145.825 MHz
Saudisat 1A 16 Sep 21:31:36 21:34:49 19° 334° (NNW) 21:38:02 436.775 MHz
AO-40 16 Sep 21:34:13 02:52:35 33° 183° (S) 09:00:14 Beacon 2401.320
FUNcube-1 16 Sep 22:21:18 22:25:29 45° 69° (ENE) 22:29:48 145.950 - 145.970 MHz USB
Sapphire 16 Sep 22:36:48 22:42:16 81° 237° (WSW) 22:47:42 437.095 MHz 1200 baud AX-25 AFSK
KITSAT 1 16 Sep 22:37:24 22:45:19 55° 318° (NW) 22:53:16 435.175 FM
STRAND 1 16 Sep 22:39:40 22:41:42 12° 309° (NW) 22:43:43 ?
Oscar 11 16 Sep 22:40:09 22:44:26 53° 260° (W) 22:48:45 145.825 FM, Beacon 2401.500 USB
HO-68 16 Sep 22:49:55 22:55:58 29° 267° (W) 23:02:05 435.675 MHz FM
UKube-1 16 Sep 22:54:24 22:58:07 28° 265° (W) 23:01:53 145.840 MHz, 145.915 MHz
SO-50 16 Sep 23:04:02 23:06:30 15° 110° (ESE) 23:08:59 436.795 FM
PCSat 16 Sep 23:04:23 23:09:37 49° 243° (WSW) 23:14:48 145.825 MHz
Saudisat 1A 16 Sep 23:14:29 23:16:05 12° 359° (N) 23:17:41 436.775 MHz
FUNcube-1 16 Sep 23:58:36 00:02:06 23° 268° (W) 00:05:43 145.950 - 145.970 MHz USB
Sapphire 17 Sep 00:21:57 00:24:51 15° 256° (WSW) 00:27:45 437.095 MHz 1200 baud AX-25 AFSK
KITSAT 1 17 Sep 00:35:58 00:42:39 27° 345° (NNW) 00:49:20 435.175 FM
SO-50 17 Sep 00:41:51 00:46:22 89° 309° (NW) 00:51:02 436.795 FM
Saudisat 1A 17 Sep 00:54:24 00:57:25 18° 23° (NNE) 01:00:25 436.775 MHz
UOSAT-12 17 Sep 00:58:18 01:01:21 18° 112° (ESE) 01:04:27 437.025 FM, 437.400 FM
Oscar 19 17 Sep 02:01:52 02:05:36 20° 90° (E) 02:09:18 437.125 CW, 437.150 USB
AO-27 17 Sep 02:13:59 02:15:28 11° 85° (E) 02:16:58 436.795 MHz FM
SO-50 17 Sep 02:23:53 02:27:34 23° 332° (NNW) 02:31:20 436.795 FM
Saudisat 1A 17 Sep 02:33:30 02:37:53 58° 45° (NE) 02:42:15 436.775 MHz
KITSAT 1 17 Sep 02:34:14 02:40:55 27° 15° (NNE) 02:47:36 435.175 FM
UOSAT-12 17 Sep 02:36:16 02:40:56 80° 311° (NW) 02:45:42 437.025 FM, 437.400 FM
Oscar 16 17 Sep 02:39:25 02:44:20 41° 97° (E) 02:49:11 437.025 USB, Beacon 2401.1428
Gurwin Techsat 1B 17 Sep 02:49:26 02:51:19 12° 84° (E) 02:53:12 435.225 FM
AO-Echo 17 Sep 03:16:19 03:20:52 42° 98° (E) 03:25:31 ?
ITAMSAT 1 17 Sep 03:16:39 03:21:30 38° 97° (E) 03:26:20 435.822 SSB
Uribyol 2 17 Sep 03:21:33 03:26:33 44° 98° (E) 03:31:32 436.500 FM
TMSAT-1 17 Sep 03:27:00 03:30:44 19° 89° (E) 03:34:27 436.925 FM
JAS-1B 17 Sep 03:34:51 03:40:44 56° 100° (E) 03:46:16 435.800 - 435.900 CW/SSB
Oscar 19 17 Sep 03:40:17 03:45:27 68° 289° (WNW) 03:50:34 437.125 CW, 437.150 USB
AO-27 17 Sep 03:50:42 03:55:56 73° 104° (ESE) 04:01:08 436.795 MHz FM
Oscar 10/S400 17 Sep 03:59:19 04:56:17 21° 241° (WSW) 07:14:57 145.825 - 145.975 CW/USB, Beacon 145.810 USB
RS-15 17 Sep 04:05:07 04:12:48 23° 100° (E) 04:20:24 29.354 - 29.394 USB, Beacon 29.352 USB
SO-50 17 Sep 04:07:33 04:09:48 13° 356° (N) 04:12:04 436.795 FM
Saudisat 1A 17 Sep 04:13:40 04:17:09 23° 245° (WSW) 04:20:36 436.775 MHz
UOSAT-12 17 Sep 04:18:06 04:21:48 22° 333° (NNW) 04:25:33 437.025 FM, 437.400 FM
Oscar 16 17 Sep 04:18:59 04:23:37 34° 297° (WNW) 04:28:12 437.025 USB, Beacon 2401.1428
OPAL 17 Sep 04:24:43 04:29:39 46° 64° (ENE) 04:34:38 ?
Uosat F 17 Sep 04:26:11 04:27:38 11° 85° (E) 04:29:05 435.120 FM
Gurwin Techsat 1B 17 Sep 04:26:53 04:32:14 75° 104° (ESE) 04:37:32 435.225 FM
KITSAT 1 17 Sep 04:30:17 04:38:15 55° 42° (NE) 04:46:08 435.175 FM
AO-7 17 Sep 04:36:51 04:43:14 24° 90° (E) 04:49:35 29.400 - 29.500 MHz
ISS 17 Sep 04:39:31 04:42:11 23° 143° (SE) 04:44:52 145.800 FM
AO-Echo 17 Sep 04:55:27 04:59:32 29° 297° (WNW) 05:03:41 ?
ITAMSAT 1 17 Sep 04:56:15 05:00:59 36° 296° (WNW) 05:05:43 435.822 SSB
Uribyol 2 17 Sep 05:01:19 05:05:54 32° 297° (WNW) 05:10:29 436.500 FM
TMSAT-1 17 Sep 05:05:54 05:11:13 72° 288° (WNW) 05:16:29 436.925 FM
Oscar 19 17 Sep 05:21:33 05:23:53 13° 309° (NW) 05:26:11 437.125 CW, 437.150 USB
JAS-1B 17 Sep 05:26:09 05:31:05 27° 303° (WNW) 05:35:45 435.800 - 435.900 CW/SSB
AO-27 17 Sep 05:31:08 05:34:56 21° 303° (WNW) 05:38:44 436.795 MHz FM
JAS-2 17 Sep 05:44:29 05:46:51 12° 86° (E) 05:49:19 435.800 - 435.900 CW/SSB, 435.910 FM
SO-50 17 Sep 05:48:58 05:52:13 18° 21° (NNE) 05:55:30 436.795 FM
UOSAT-12 17 Sep 06:01:22 06:03:40 13° 357° (N) 06:05:58 437.025 FM, 437.400 FM
Uosat F 17 Sep 06:02:15 06:07:18 76° 104° (ESE) 06:12:20 435.120 FM
OPAL 17 Sep 06:04:10 06:08:42 30° 263° (W) 06:13:17 ?
Gurwin Techsat 1B 17 Sep 06:07:49 06:11:40 21° 303° (WNW) 06:15:31 435.225 FM
RS-15 17 Sep 06:12:18 06:23:16 77° 124° (SE) 06:34:12 29.354 - 29.394 USB, Beacon 29.352 USB
ISS 17 Sep 06:15:16 06:18:36 87° 161° (SSE) 06:21:57 145.800 FM
KITSAT 1 17 Sep 06:25:58 06:33:38 49° 245° (WSW) 06:41:15 435.175 FM
AO-7 17 Sep 06:28:45 06:37:05 88° 291° (WNW) 06:45:23 29.400 - 29.500 MHz
STRAND 1 17 Sep 06:39:55 06:44:45 45° 67° (ENE) 06:49:37 ?
TMSAT-1 17 Sep 06:47:34 06:50:15 14° 308° (NW) 06:52:56 436.925 FM
Hamsat 17 Sep 07:23:51 07:28:09 66° 101° (ESE) 07:32:21 145.90 MHz
JAS-2 17 Sep 07:27:04 07:32:49 71° 103° (ESE) 07:39:18 435.800 - 435.900 CW/SSB, 435.910 FM
SO-50 17 Sep 07:29:09 07:33:49 52° 43° (NE) 07:38:33 436.795 FM
SO-67 17 Sep 07:40:23 07:42:18 14° 90° (E) 07:44:12 435.3500 MHz FM
Uosat F 17 Sep 07:42:04 07:45:34 19° 303° (WNW) 07:49:03 435.120 FM
UOSAT-12 17 Sep 07:42:17 07:45:38 19° 22° (NNE) 07:48:58 437.025 FM, 437.400 FM
ISS 17 Sep 07:52:10 07:55:29 58° 1° (N) 07:58:47 145.800 FM
STRAND 1 17 Sep 08:19:46 08:24:08 29° 266° (W) 08:28:32 ?
AO-7 17 Sep 08:22:20 08:28:57 28° 313° (NW) 08:35:34 29.400 - 29.500 MHz
RS-15 17 Sep 08:26:05 08:36:33 48° 332° (NNW) 08:47:08 29.354 - 29.394 USB, Beacon 29.352 USB
MaSat-1 17 Sep 08:36:00 08:38:11 13° 101° (E) 08:40:21 437.345 MHz
Hamsat 17 Sep 09:00:54 09:03:38 17° 300° (WNW) 09:06:20 145.90 MHz
SO-50 17 Sep 09:10:02 09:14:13 30° 243° (WSW) 09:18:26 436.795 FM
SO-67 17 Sep 09:12:16 09:15:36 46° 288° (WNW) 09:18:55 435.3500 MHz FM
JAS-2 17 Sep 09:13:05 09:17:34 24° 301° (WNW) 09:22:25 435.800 - 435.900 CW/SSB, 435.910 FM
UOSAT-12 17 Sep 09:22:06 09:26:47 56° 44° (NE) 09:31:24 437.025 FM, 437.400 FM
ISS 17 Sep 09:28:59 09:32:20 78° 201° (SSW) 09:35:39 145.800 FM
